Weather History for Saint Simons Island, GA

Change the Weather History Date:

Monday, July 15, 2013

  Actual Average Record
Temperature  
Mean Temperature 82 °F 83 °F  
Max Temperature 87 °F 91 °F 102 °F (1981)
Min Temperature 76 °F 75 °F 67 °F (1967)
Degree Days  
Heating Degree Days 0 0  
Month to date heating degree days 0 0  
Since 1 June heating degree days 0 0  
Since 1 July heating degree days 0 0  
Cooling Degree Days 17 18  
Month to date cooling degree days 245 265  
Year to date cooling degree days 1141 1166  
Since 1 June cooling degree days 740 724  
Growing Degree Days 30 (Base 50)    
Moisture  
Dew Point 74 °F    
Average Humidity 78    
Maximum Humidity 85    
Minimum Humidity 70    
Precipitation  
Precipitation 0.25 in 0.12 in 3.22 in (2011)
Month to date precipitation 2.74 1.94  
Year to date precipitation 23.47 21.70  
Snow  
Snow 0.00 in - 0.00 in ()
Month to date snowfall 0.0  
Since 1 June snowfall 0.0  
Since 1 July snowfall 0.0  
Snow Depth 0.00 in    
Sea Level Pressure  
Sea Level Pressure 30.17 in    
Wind  
Wind Speed 11 mph (ENE)    
Max Wind Speed 17 mph    
Max Gust Speed 24 mph    
Visibility 10 miles    
Events Rain , Thunderstorm    
T = Trace of Precipitation, MM = Missing Value Source: NWS Daily Summary

Daily Weather History Graph

Daily Weather History Graph

Search for Another Location

Airport:

Trip Planner

Search our weather history database for the weather conditions in past years. The results will help you decide how hot, cold, wet, or windy it might be!

Date:

Astronomy

Jul. 15, 2013 Rise Set
Actual Time 6:32 AM EDT 8:30 PM EDT
Civil Twilight 6:04 AM EDT 8:57 PM EDT
Nautical Twilight 5:31 AM EDT 9:30 PM EDT
Astronomical Twilight 4:56 AM EDT 10:06 PM EDT
Moon 1:18 PM EDT (7/15) 12:12 AM EDT (7/15)
Length of Visible Light 14h 52m
Length of Day
13h 58m
Waxing Crescent, 45% of the Moon is Illuminated
Jul 15
Waxing Crescent
Jul 15
First Quarter
Jul 22
Full
Jul 29
Last Quarter
Aug 6
New

Hourly Weather History & Observations

Time (EDT) Temp. Heat Index Dew Point Humidity Pressure Visibility Wind Dir Wind Speed Gust Speed Precip Events Conditions
12:24 AM 78.8 °F - 71.6 °F 78% 30.16 in 10.0 mi East 10.4 mph - N/A   Mostly Cloudy
12:53 AM 79.0 °F - 73.0 °F 82% 30.16 in 10.0 mi East 11.5 mph - N/A   Mostly Cloudy
1:08 AM 78.8 °F - 71.6 °F 78% 30.16 in 10.0 mi East 10.4 mph - N/A   Scattered Clouds
1:53 AM 79.0 °F - 73.0 °F 82% 30.16 in 10.0 mi East 6.9 mph - N/A   Scattered Clouds
2:18 AM 78.8 °F - 73.4 °F 83% 30.16 in 10.0 mi East 6.9 mph - N/A   Mostly Cloudy
2:53 AM 79.0 °F - 73.0 °F 82% 30.15 in 10.0 mi East 8.1 mph - N/A   Mostly Cloudy
3:01 AM 78.8 °F - 73.4 °F 83% 30.15 in 10.0 mi East 6.9 mph - N/A   Scattered Clouds
3:10 AM 78.8 °F - 73.4 °F 83% 30.14 in 10.0 mi East 4.6 mph - N/A   Mostly Cloudy
3:19 AM 78.8 °F - 73.4 °F 83% 30.14 in 10.0 mi East 5.8 mph - N/A   Scattered Clouds
3:26 AM 78.8 °F - 73.4 °F 83% 30.14 in 10.0 mi East 5.8 mph - N/A   Mostly Cloudy
3:53 AM 79.0 °F - 73.9 °F 84% 30.14 in 10.0 mi NE 6.9 mph - N/A   Scattered Clouds
4:33 AM 78.8 °F - 73.4 °F 83% 30.14 in 10.0 mi NNE 4.6 mph - N/A Thunderstorm Scattered Clouds
4:53 AM 78.1 °F - 73.9 °F 87% 30.14 in 10.0 mi Calm Calm - N/A Thunderstorm Mostly Cloudy
4:59 AM 78.8 °F - 73.4 °F 83% 30.14 in 10.0 mi NNE 3.5 mph - N/A   Scattered Clouds
5:21 AM 78.8 °F - 73.4 °F 83% 30.14 in 10.0 mi Calm Calm - N/A   Mostly Cloudy
5:35 AM 78.8 °F - 73.4 °F 83% 30.14 in 10.0 mi NE 8.1 mph - N/A   Scattered Clouds
5:53 AM 79.0 °F - 73.0 °F 82% 30.15 in 10.0 mi NE 8.1 mph - N/A   Clear
6:22 AM 75.2 °F - 73.4 °F 94% 30.15 in 1.8 mi SE 11.5 mph - 0.16 in Rain Heavy Rain
6:31 AM 77.0 °F - 73.4 °F 89% 30.15 in 3.0 mi NE 5.8 mph - 0.21 in Rain Light Rain
6:41 AM 75.2 °F - 73.4 °F 94% 30.15 in 10.0 mi East 3.5 mph - 0.21 in   Overcast
6:53 AM 78.1 °F - 73.9 °F 87% 30.15 in 10.0 mi NE 8.1 mph - 0.21 in   Scattered Clouds
7:53 AM 80.1 °F 85.1 °F 75.0 °F 85% 30.16 in 10.0 mi NE 12.7 mph - N/A   Partly Cloudy
8:53 AM 81.0 °F 87.3 °F 75.9 °F 85% 30.17 in 10.0 mi ENE 11.5 mph - N/A   Scattered Clouds
9:16 AM 80.6 °F 86.2 °F 75.2 °F 84% 30.18 in 10.0 mi ENE 8.1 mph - 0.00 in Rain Light Rain
9:24 AM 77.0 °F - 71.6 °F 83% 30.18 in 2.5 mi ENE 11.5 mph 23.0 mph 0.04 in Rain Heavy Rain
9:32 AM 78.8 °F - 73.4 °F 83% 30.17 in 9.0 mi NE 9.2 mph - 0.04 in Rain Light Rain
9:53 AM 80.1 °F 84.5 °F 73.9 °F 81% 30.18 in 10.0 mi NE 9.2 mph - 0.04 in   Mostly Cloudy
10:06 AM 80.6 °F 85.4 °F 73.4 °F 79% 30.18 in 10.0 mi ENE 6.9 mph - N/A Thunderstorm Mostly Cloudy
10:27 AM 82.4 °F 90.9 °F 77.0 °F 84% 30.19 in 10.0 mi East 11.5 mph - 0.00 in   Mostly Cloudy
10:39 AM 84.2 °F 94.1 °F 77.0 °F 79% 30.19 in 10.0 mi ENE 13.8 mph 19.6 mph 0.00 in   Scattered Clouds
10:53 AM 84.0 °F 92.6 °F 75.9 °F 76% 30.19 in 10.0 mi ENE 13.8 mph - 0.00 in   Partly Cloudy
11:31 AM 82.4 °F 89.5 °F 75.2 °F 79% 30.20 in 10.0 mi East 11.5 mph - N/A   Mostly Cloudy
11:53 AM 82.9 °F 90.8 °F 75.9 °F 79% 30.20 in 10.0 mi East 9.2 mph - N/A   Scattered Clouds
12:53 PM 86.0 °F 96.0 °F 75.9 °F 72% 30.19 in 10.0 mi East 12.7 mph 21.9 mph N/A   Partly Cloudy
1:53 PM 84.9 °F 93.3 °F 75.0 °F 72% 30.18 in 10.0 mi ENE 16.1 mph - N/A   Partly Cloudy
2:53 PM 86.0 °F 95.1 °F 75.0 °F 70% 30.17 in 10.0 mi East 16.1 mph - N/A   Partly Cloudy
3:53 PM 86.0 °F 95.1 °F 75.0 °F 70% 30.16 in 10.0 mi East 12.7 mph 20.7 mph N/A   Scattered Clouds
4:53 PM 84.9 °F 92.1 °F 73.9 °F 69% 30.17 in 10.0 mi East 13.8 mph - N/A   Scattered Clouds
5:53 PM 84.0 °F 91.2 °F 73.9 °F 72% 30.15 in 10.0 mi East 12.7 mph - N/A   Partly Cloudy
6:53 PM 82.9 °F 89.4 °F 73.9 °F 74% 30.16 in 10.0 mi East 15.0 mph - N/A   Mostly Cloudy
7:10 PM 82.4 °F 88.2 °F 73.4 °F 74% 30.16 in 10.0 mi East 12.7 mph - N/A   Mostly Cloudy
7:45 PM 82.4 °F 88.2 °F 73.4 °F 74% 30.16 in 10.0 mi East 12.7 mph 20.7 mph N/A   Scattered Clouds
7:53 PM 82.0 °F 87.9 °F 73.9 °F 76% 30.16 in 10.0 mi East 13.8 mph 19.6 mph N/A   Scattered Clouds
8:19 PM 82.4 °F 88.2 °F 73.4 °F 74% 30.17 in 10.0 mi East 12.7 mph 19.6 mph N/A   Mostly Cloudy
8:53 PM 82.0 °F 87.9 °F 73.9 °F 76% 30.16 in 10.0 mi East 12.7 mph - N/A   Scattered Clouds
9:53 PM 81.0 °F 86.2 °F 73.9 °F 79% 30.18 in 10.0 mi East 13.8 mph - N/A   Scattered Clouds
10:53 PM 81.0 °F 86.2 °F 73.9 °F 79% 30.20 in 10.0 mi East 12.7 mph - N/A   Scattered Clouds
11:40 PM 80.6 °F 85.4 °F 73.4 °F 79% 30.21 in 10.0 mi East 12.7 mph 20.7 mph N/A   Mostly Cloudy
11:53 PM 81.0 °F 86.2 °F 73.9 °F 79% 30.21 in 10.0 mi East 13.8 mph 21.9 mph N/A   Scattered Clouds